TDRS 3

Last updated on July 6, 2021, 3:26 p.m. UTC

1 19548U 88091B   21186.85247987 -.00000297  00000-0  00000-0 0  9990
2 19548  13.9518 354.1216 0034749 327.7298 220.1845  1.00278402107265
UTC
Height (km)
Latitude
Longitude
Inclination
Orbital Period
UTC large
Height (km)
Speed (km/s)
/
Latitude / Longitude
Inclination (degrees)
Orbital Period (minutes)
Azimuth
Elevation
Range (km)
Doppler Factor
iOS Compass Heading
iOS Angle